Maastricht, Netherlands

7:22 AM CET on February 23, 2017 (GMT +0100)
Maastricht-Aachen

Weather History for EHBK - September, 2012

Change the Weather History Date:

Sunday, September 30, 2012

  Actual Average Record
Temperature  
Mean Temperature 52 °F -  
Max Temperature 62 °F 58 °F 78 °F (2011)
Min Temperature 42 °F 44 °F 42 °F (2003)
Degree Days  
Heating Degree Days 13    
Growing Degree Days 2 (Base 50)    
Moisture  
Dew Point 43 °F    
Average Humidity 75    
Maximum Humidity 93    
Minimum Humidity 42    
Precipitation  
Precipitation 0.00 in 0.08 in - ()
Sea Level Pressure  
Sea Level Pressure 30.15 in    
Wind  
Wind Speed 7 mph ()    
Max Wind Speed 12 mph    
Max Gust Speed -    
Visibility 7.0 miles    
Events      
Averages and records for this station are not official NWS values.
T = Trace of Precipitation, MM = Missing Value Source: Averaged Metar Reports

Daily Weather History Graph

Daily Weather History Graph

Search for Another Location

Airport or City:

Trip Planner

Search our weather history database for the weather conditions in past years. The results will help you decide how hot, cold, wet, or windy it might be!

Date:

Astronomy

Sep. 30, 2012 Rise Set
Actual Time 7:36 AM CEST 7:16 PM CEST
Civil Twilight 7:03 AM CEST 7:49 PM CEST
Nautical Twilight 6:24 AM CEST 8:27 PM CEST
Astronomical Twilight 5:45 AM CEST 9:06 PM CEST
Moon 7:01 PM CEST (9/30) 7:58 AM CEST (9/30)
Length of Visible Light 12h 45m
Length of Day
11h 40m
Full, 100% of the Moon is Illuminated
Sep 30
Full
Oct 8
Last Quarter
Oct 15
New
Oct 22
First Quarter
Oct 29
Full

Hourly Weather History & Observations

Time (CEST) Temp. Windchill Dew Point Humidity Pressure Visibility Wind Dir Wind Speed Gust Speed Precip Events Conditions
12:25 AM 42.8 °F 39.3 °F 39.2 °F 87% 30.15 in 6.2 mi SW 5.8 mph - N/A   Unknown
12:55 AM 44.6 °F 40.7 °F 42.8 °F 93% 30.15 in 6.2 mi SSW 6.9 mph - N/A   Unknown
1:25 AM 44.6 °F 40.7 °F 42.8 °F 93% 30.15 in 6.2 mi SSW 6.9 mph - N/A   Unknown
1:55 AM 44.6 °F 40.2 °F 42.8 °F 93% 30.15 in 6.2 mi SSW 8.1 mph - N/A   Unknown
2:00 AM 45 °F - 42 °F 86% 30.19 in 14 mi SSW 8.9 mph - -   Partly Cloudy
2:25 AM 44.6 °F 40.2 °F 42.8 °F 93% 30.15 in 6.2 mi SSW 8.1 mph - N/A   Unknown
2:55 AM 44.6 °F 40.2 °F 42.8 °F 93% 30.15 in 6.2 mi SSW 8.1 mph - N/A   Unknown
3:25 AM 44.6 °F 39.7 °F 42.8 °F 93% 30.15 in 6.2 mi SSW 9.2 mph - N/A   Unknown
3:55 AM 44.6 °F 40.2 °F 42.8 °F 93% 30.15 in 6.2 mi SSW 8.1 mph - N/A   Unknown
4:25 AM 44.6 °F 39.7 °F 42.8 °F 93% 30.15 in 6.2 mi SSW 9.2 mph - N/A   Unknown
4:55 AM 44.6 °F 39.7 °F 42.8 °F 93% 30.15 in 6.2 mi SSW 9.2 mph - N/A   Unknown
5:00 AM 44 °F - 42 °F 89% 30.18 in 12 mi SSW 8.9 mph - -  
5:25 AM 42.8 °F 37.5 °F 41.0 °F 93% 30.15 in 6.2 mi SSW 9.2 mph - N/A   Unknown
5:55 AM 42.8 °F 38.0 °F 41.0 °F 93% 30.15 in 6.2 mi SSW 8.1 mph - N/A   Unknown
6:25 AM 42.8 °F 38.6 °F 41.0 °F 93% 30.15 in 6.2 mi SSW 6.9 mph - N/A   Unknown
6:55 AM 42.8 °F 38.0 °F 41.0 °F 93% 30.15 in 6.2 mi SSW 8.1 mph - N/A   Unknown
7:25 AM 44.6 °F 40.2 °F 41.0 °F 87% 30.15 in 6.2 mi SSW 8.1 mph - N/A   Unknown
7:55 AM 42.8 °F 38.0 °F 41.0 °F 93% 30.18 in 6.2 mi SSW 8.1 mph - N/A   Unknown
8:00 AM 44 °F - 41 °F 85% 30.21 in 14 mi SSW 8.9 mph - -   Partly Cloudy
8:25 AM 44.6 °F 39.7 °F 41.0 °F 87% 30.18 in 6.2 mi SSW 9.2 mph - N/A   Unknown
8:55 AM 46.4 °F 41.9 °F 42.8 °F 87% 30.18 in 6.2 mi SSW 9.2 mph - N/A   Unknown
9:25 AM 46.4 °F 41.1 °F 42.8 °F 87% 30.18 in 6.2 mi SSW 11.5 mph - N/A   Unknown
9:55 AM 48.2 °F - 42.8 °F 82% 30.21 in 6.2 mi SSW 9.2 mph - N/A   Unknown
10:25 AM 50.0 °F - 44.6 °F 82% 30.21 in 6.2 mi SSW 8.1 mph - N/A   Unknown
10:55 AM 53.6 °F - 46.4 °F 77% 30.21 in 6.2 mi SW 9.2 mph - N/A   Unknown
11:00 AM 53 °F - 46 °F 68% 30.23 in 16 mi SSW 8.9 mph - -  
11:25 AM 55.4 °F - 46.4 °F 72% 30.18 in 6.2 mi SW 6.9 mph - N/A   Unknown
11:55 AM 57.2 °F - 46.4 °F 67% 30.18 in 6.2 mi SSW 6.9 mph - N/A   Unknown
12:25 PM 57.2 °F - 44.6 °F 63% 30.18 in 6.2 mi WSW 8.1 mph - N/A   Unknown
12:55 PM 59.0 °F - 42.8 °F 55% 30.18 in 6.2 mi SW 9.2 mph - N/A   Unknown
1:25 PM 59.0 °F - 44.6 °F 59% 30.18 in 6.2 mi WSW 9.2 mph - N/A   Unknown
1:55 PM 59.0 °F - 42.8 °F 55% 30.18 in 6.2 mi SSW 8.1 mph - N/A   Unknown
2:00 PM 59 °F - 43 °F 45% 30.19 in 17 mi SW 11.2 mph - -   Partly Cloudy
2:25 PM 60.8 °F - 44.6 °F 55% 30.15 in 6.2 mi SSW 9.2 mph - N/A   Unknown
2:55 PM 60.8 °F - 42.8 °F 52% 30.15 in 6.2 mi SW 10.4 mph - N/A   Unknown
3:25 PM 60.8 °F - 44.6 °F 55% 30.15 in 6.2 mi SW 9.2 mph - N/A   Unknown
3:55 PM 62.6 °F - 46.4 °F 55% 30.15 in 6.2 mi SSW 6.9 mph - N/A   Unknown
4:25 PM 60.8 °F - 42.8 °F 52% 30.12 in 6.2 mi SW 6.9 mph - N/A   Unknown
4:55 PM 60.8 °F - 42.8 °F 52% 30.12 in 6.2 mi SSW 10.4 mph - N/A   Unknown
5:00 PM 61 °F - 44 °F 42% 30.14 in 22 mi SSW 11.2 mph - -  
5:25 PM 60.8 °F - 42.8 °F 52% 30.12 in 6.2 mi SSW 9.2 mph - N/A   Unknown
5:55 PM 60.8 °F - 42.8 °F 52% 30.12 in 6.2 mi WSW 6.9 mph - N/A   Unknown
6:25 PM 59.0 °F - 42.8 °F 55% 30.12 in 6.2 mi WSW 5.8 mph - N/A   Unknown
6:55 PM 57.2 °F - 42.8 °F 59% 30.09 in 6.2 mi WSW 5.8 mph - N/A   Unknown
7:25 PM 55.4 °F - 42.8 °F 63% 30.09 in 6.2 mi SW 4.6 mph - N/A   Unknown
7:55 PM 51.8 °F - 42.8 °F 71% 30.09 in 6.2 mi SW 4.6 mph - N/A   Unknown
8:00 PM 51 °F - 43 °F 65% 30.14 in 25 mi SW 4.5 mph - -   Partly Cloudy
8:25 PM 51.8 °F - 42.8 °F 71% 30.09 in 6.2 mi SSW 4.6 mph - N/A   Unknown
8:55 PM 50.0 °F - 42.8 °F 76% 30.12 in 6.2 mi South 4.6 mph - N/A   Unknown
9:25 PM 50.0 °F - 42.8 °F 76% 30.09 in 6.2 mi South 3.5 mph - N/A   Unknown
9:55 PM 48.2 °F - 41.0 °F 76% 30.12 in 6.2 mi South 3.5 mph - N/A   Unknown
10:25 PM 48.2 °F - 41.0 °F 76% 30.09 in 6.2 mi South 4.6 mph - N/A   Unknown
10:55 PM 48.2 °F - 41.0 °F 76% 30.09 in 6.2 mi South 5.8 mph - N/A   Unknown
11:00 PM 48 °F - 42 °F 74% 30.13 in 22 mi South 6.7 mph - -  
11:25 PM 48.2 °F - 42.8 °F 82% 30.09 in 6.2 mi South 5.8 mph - N/A   Unknown
11:55 PM 48.2 °F - 42.8 °F 82% 30.09 in 6.2 mi South 6.9 mph - N/A   Unknown